Kezdőlap
METAR-TAF:

METAR-TAF

Repülőterek :

Airlake Airport

Minneapolis-Lakeville, Minnesota, Amerikai Egyesült Államok

földrajzi szélesség: 44-37-40N, földrajzi hosszúság: 093-13-41W, magasság: 293 m

Jelenlegi meteorológiai megfigyelések

A jelentés 21 perccel ezelõtt készült, 19:35 UTC
Szélcsend
Hőmérséklet 24°C
Páratartalom 61%
Légköri nyomás 1009 hPa
Látótávolság: 16.1 km
Szórványos felhőzet 3100 lábon
Szakadozott felhőzet 4200 lábon

METAR: KLVN 201935Z AUTO 00000KT 10SM SCT031 BKN042 24/16 A2980 RMK AO2

Idő: 14:56 (19:56 UTC)


TAF: hiányzik

Meteorológiai megfigyelések és előrejelzések több, mint 4000 repülőtéren (METAR és TAF jelentéseket).

A térképen piros és sárga pontok jelzik az elérhető meteorológiai állomásokat.

Mozgassa az egeret a pont fölött, hogy megjelenjen az állomás neve.

Azután kattintson az időjárási megfigyelések és előrejelzések megtekintéséhez.

A térkép megváltoztatása: kattintson a fekete keresztel jelölt zöld gombra ráközelítéshez, a vonallal jelölt zöld gombra távolításhoz, vagy a zöld nyilakra a szomszédos térképek eléréséhez.


METAR-TAF: